Total_Precipitation_Accumulation
0.13 0.32 0.77 1.24 1.84 2.10 1.59 0.84 0.64 0.48 0.47 0.57 0.55 0.47 0.54 0.75 1.13 1.99 2.00 1.99 1.66 1.56 1.69 2.12 2.58 2.34 2.05 1.87 1.90 1.92 1.72 1.66 1.69 1.73 1.74 1.88 1.88 1.75 1.79 2.06 2.35 2.59 2.81 2.60 2.33 2.14 2.01 1.90 1.67
0.26 0.48 0.95 1.50 2.13 2.23 1.47 0.75 0.56 0.44 0.51 0.56 0.47 0.42 0.54 0.63 0.74 1.19 1.68 1.81 1.39 1.23 1.37 1.60 2.04 2.09 1.87 1.69 1.65 1.59 1.57 1.56 1.62 1.72 1.67 1.73 1.77 1.78 1.91 2.22 2.39 2.45 2.30 2.00 2.00 1.91 1.78 1.59 1.49
0.44 0.68 1.07 1.51 1.58 1.50 0.90 0.49 0.42 0.40 0.53 0.56 0.48 0.49 0.66 0.91 1.02 1.28 1.41 1.34 1.13 1.07 1.24 1.57 1.86 1.80 1.67 1.57 1.49 1.40 1.40 1.49 1.58 1.60 1.61 1.71 1.73 1.81 2.03 2.25 2.29 2.14 1.86 1.75 1.80 1.69 1.58 1.34 1.24
0.58 0.82 1.05 1.16 1.03 0.81 0.55 0.41 0.37 0.40 0.53 0.50 0.48 0.71 0.97 1.15 1.03 1.08 1.08 1.02 0.93 0.99 1.22 1.53 1.62 1.40 1.34 1.34 1.28 1.25 1.29 1.46 1.52 1.46 1.60 1.73 1.80 1.81 1.90 1.95 1.99 1.88 1.65 1.60 1.53 1.41 1.36 1.24 1.15
0.65 0.94 1.14 0.97 0.73 0.55 0.44 0.39 0.38 0.38 0.39 0.49 0.60 0.98 1.34 1.36 0.97 1.00 1.02 0.89 0.79 0.99 1.20 1.30 1.35 1.19 1.09 1.15 1.14 1.17 1.30 1.50 1.53 1.47 1.51 1.58 1.64 1.69 1.68 1.64 1.68 1.71 1.56 1.43 1.38 1.33 1.23 1.25 1.19
0.75 0.87 0.85 0.70 0.53 0.39 0.42 0.40 0.35 0.35 0.42 0.52 0.66 0.84 1.47 1.47 1.13 1.22 1.12 1.04 0.96 1.05 1.16 1.29 1.31 1.15 1.06 1.08 1.08 1.13 1.37 1.60 1.57 1.44 1.43 1.42 1.42 1.45 1.47 1.51 1.56 1.60 1.47 1.34 1.29 1.25 1.17 1.13 1.14
0.56 0.66 0.58 0.44 0.39 0.36 0.35 0.32 0.32 0.35 0.51 0.62 0.71 0.99 1.64 1.79 1.40 1.27 1.29 1.30 1.16 1.25 1.44 1.39 1.23 1.17 1.25 1.33 1.37 1.42 1.63 1.70 1.60 1.55 1.47 1.40 1.33 1.33 1.39 1.39 1.44 1.46 1.38 1.32 1.22 1.20 1.14 1.07 1.08
0.40 0.38 0.33 0.25 0.24 0.32 0.27 0.25 0.29 0.38 0.54 0.68 0.84 1.17 1.80 1.80 1.45 1.35 1.40 1.57 1.43 1.37 1.37 1.33 1.16 1.13 1.20 1.45 1.77 1.78 1.77 1.77 1.72 1.63 1.55 1.43 1.33 1.38 1.43 1.30 1.47 1.47 1.46 1.42 1.43 1.52 1.28 1.19 1.25
0.26 0.31 0.25 0.20 0.18 0.24 0.22 0.22 0.28 0.41 0.55 0.66 0.94 1.17 1.35 1.30 1.37 1.37 1.58 1.91 1.94 1.68 1.55 1.37 1.09 1.16 1.38 1.65 1.77 1.85 1.85 1.96 2.03 1.97 1.83 1.78 1.90 1.88 1.98 1.72 1.97 1.89 1.85 1.77 1.83 1.89 1.71 1.61 1.50
0.20 0.23 0.21 0.16 0.14 0.17 0.16 0.18 0.29 0.56 0.74 1.03 1.32 1.30 1.14 1.13 1.35 1.50 1.74 2.14 2.23 2.09 1.87 1.63 1.38 1.40 1.63 1.64 1.65 1.78 1.81 1.96 2.09 2.20 2.13 2.44 2.71 2.59 2.03 2.26 2.59 2.63 2.51 2.37 2.43 2.56 2.28 1.98 1.75
0.12 0.14 0.13 0.14 0.12 0.12 0.12 0.18 0.25 0.43 0.95 1.49 1.74 1.68 1.48 1.28 1.48 1.84 2.24 2.55 2.32 2.11 2.04 1.98 1.80 1.76 1.67 1.72 1.70 1.90 2.09 2.43 2.32 2.22 2.26 2.74 2.65 2.36 2.14 2.41 2.83 3.12 2.89 2.71 2.79 2.92 2.47 2.51 2.74
0.08 0.10 0.08 0.09 0.09 0.08 0.11 0.18 0.30 0.46 0.95 1.24 1.42 1.50 1.50 1.48 1.58 1.83 2.16 2.44 2.64 2.61 2.50 2.40 2.28 2.16 2.16 2.08 1.95 1.91 2.02 2.25 2.36 2.53 2.29 2.69 2.95 2.83 2.76 3.02 3.01 3.23 3.36 3.72 3.49 3.56 3.33 3.27 3.08
0.09 0.07 0.06 0.05 0.06 0.07 0.11 0.21 0.35 0.51 0.77 0.82 0.90 1.03 1.29 1.54 1.93 2.24 2.37 2.71 2.85 3.02 2.91 2.89 2.80 2.75 2.75 2.68 2.53 2.08 2.24 2.33 2.46 2.75 2.74 2.88 3.22 3.33 3.34 3.31 3.23 2.97 3.30 3.72 3.99 3.58 3.88 3.92 3.51
0.08 0.08 0.06 0.06 0.06 0.10 0.15 0.24 0.37 0.57 0.68 0.71 0.80 0.98 1.24 1.58 1.88 2.33 2.62 3.04 3.07 3.15 3.35 3.55 3.48 3.34 3.39 3.27 3.15 2.95 2.74 2.93 2.91 3.08 3.26 3.40 3.71 3.91 3.85 3.65 3.53 3.15 3.12 3.44 3.67 3.67 4.09 3.93 3.71
0.08 0.10 0.12 0.11 0.10 0.14 0.28 0.45 0.60 0.73 0.73 0.88 0.96 1.20 1.37 1.67 2.06 2.17 2.37 2.66 3.01 3.30 3.84 4.23 4.26 4.14 4.16 4.08 3.79 3.54 3.44 3.47 3.76 3.98 3.99 3.92 4.04 4.34 4.16 3.91 3.50 3.25 3.26 3.49 3.46 3.51 3.64 3.47 3.34
0.11 0.17 0.28 0.24 0.17 0.18 0.33 0.76 0.83 0.81 0.87 1.05 1.08 1.31 1.63 1.72 2.06 2.20 2.27 2.50 3.11 3.58 4.23 4.68 4.85 5.02 4.91 4.90 4.64 4.23 4.07 4.07 4.17 4.30 4.44 4.17 4.16 4.07 4.11 3.76 3.30 3.30 3.30 3.37 3.53 3.40 3.49 3.44 3.40
0.18 0.26 0.37 0.38 0.23 0.23 0.36 0.74 0.86 0.83 0.98 1.12 1.27 1.33 1.48 1.70 2.14 2.44 2.61 2.76 3.29 3.90 4.63 5.22 5.80 6.01 5.85 5.55 5.18 4.83 4.76 4.65 4.51 4.54 4.53 4.30 4.01 3.83 4.04 3.70 3.47 3.37 3.34 3.24 3.00 3.46 3.64 3.61 3.56
0.25 0.27 0.35 0.43 0.26 0.25 0.43 0.66 0.88 0.96 1.09 1.24 1.27 1.27 1.41 1.73 1.96 2.33 2.69 3.08 3.52 3.96 4.76 5.55 6.30 6.50 6.21 5.66 5.34 5.26 5.09 4.79 4.56 4.34 4.19 3.94 3.76 3.46 3.69 3.40 3.29 3.39 3.54 3.39 3.41 3.75 3.79 3.44 3.47
0.17 0.22 0.33 0.38 0.26 0.29 0.46 0.66 0.88 1.03 1.18 1.23 1.38 1.36 1.56 1.82 1.98 2.38 2.76 3.23 3.68 4.19 4.95 5.65 6.25 6.33 6.20 5.83 5.45 5.21 4.76 4.45 4.17 3.91 3.71 3.47 3.18 3.06 3.44 3.19 3.54 3.35 3.31 3.17 3.12 3.26 3.33 2.99 3.16
0.14 0.22 0.36 0.38 0.26 0.30 0.50 0.74 1.02 1.09 1.06 1.06 1.28 1.35 1.42 1.62 1.92 2.30 2.84 3.16 3.52 4.05 4.62 5.06 5.15 4.92 4.85 4.89 4.79 4.54 4.55 4.37 4.30 4.12 3.97 3.44 3.23 3.11 2.93 3.17 2.99 2.95 3.08 2.89 2.82 3.02 3.04 2.73 3.01
0.13 0.21 0.27 0.31 0.32 0.39 0.57 0.96 1.24 1.24 1.04 0.96 0.99 1.09 1.20 1.33 1.54 1.90 2.49 2.83 3.03 3.53 3.87 3.91 3.85 3.80 3.94 4.02 3.96 4.00 4.26 4.33 4.39 4.32 4.08 3.65 3.42 3.25 3.10 3.01 2.83 2.78 2.62 2.79 2.82 2.86 2.98 2.96 2.84
0.14 0.14 0.16 0.20 0.31 0.60 0.69 1.19 1.51 1.59 1.40 1.11 0.99 1.10 1.16 1.25 1.30 1.61 1.95 2.21 2.50 2.77 2.89 2.88 2.98 3.12 3.26 3.36 3.38 3.25 3.28 3.56 3.82 4.04 4.12 3.98 3.70 3.44 3.13 2.94 2.72 2.57 2.43 2.74 2.43 2.54 2.87 3.08 2.76
0.10 0.10 0.13 0.19 0.30 0.49 0.62 0.93 1.44 1.77 1.78 1.37 1.09 1.00 0.96 1.09 1.33 1.54 1.67 1.86 1.97 2.03 2.14 2.18 2.48 2.91 3.11 3.24 3.39 3.29 2.96 2.97 3.05 3.21 3.40 3.39 3.38 3.19 2.84 2.74 2.67 2.49 2.35 2.41 2.40 2.71 2.73 2.72 2.65
0.10 0.16 0.25 0.38 0.57 0.85 0.76 0.85 1.32 1.57 1.65 1.30 1.07 0.97 0.86 0.86 1.04 1.27 1.56 1.68 1.66 1.63 1.76 1.96 2.28 2.79 3.09 3.23 3.18 3.16 3.08 3.07 2.99 2.98 3.07 2.96 2.92 2.85 2.59 2.46 2.55 2.41 2.33 2.39 2.40 2.52 2.57 2.72 2.78
0.12 0.22 0.62 1.07 1.40 1.44 0.87 0.84 1.08 1.11 1.05 1.04 0.90 0.85 0.89 0.82 0.81 0.82 1.03 1.30 1.28 1.25 1.43 1.69 1.89 2.30 2.61 2.82 2.77 2.71 2.84 2.93 2.78 2.63 2.59 2.55 2.40 2.33 2.29 2.33 2.45 2.31 2.28 2.37 2.53 2.59 2.56 2.68 2.74
0.13 0.18 0.47 0.81 1.00 1.11 0.95 1.29 1.37 1.02 0.85 0.76 0.64 0.63 0.72 0.67 0.62 0.60 0.67 0.85 1.09 1.12 1.21 1.33 1.57 1.85 2.11 2.28 2.41 2.51 2.69 2.77 2.68 2.83 2.58 2.45 2.14 2.00 2.06 2.27 2.33 2.26 2.18 2.20 2.64 2.63 2.65 2.75 2.71
0.15 0.15 0.22 0.35 0.52 0.82 1.11 1.32 1.27 1.05 0.99 0.78 0.60 0.54 0.55 0.54 0.53 0.53 0.60 0.80 0.87 0.90 1.00 1.15 1.36 1.53 1.75 1.99 2.20 2.27 2.26 2.27 2.41 2.56 2.50 2.34 2.26 2.02 2.09 2.16 2.37 2.47 2.55 2.59 2.76 2.69 2.69 2.90 2.86
0.13 0.14 0.17 0.27 0.48 0.70 1.01 1.40 1.47 1.33 1.15 0.96 0.84 0.64 0.54 0.56 0.58 0.55 0.56 0.65 0.72 0.77 0.88 1.09 1.29 1.31 1.54 1.93 2.20 2.15 2.19 2.13 2.28 2.26 2.22 2.25 2.17 2.12 2.20 2.22 2.30 2.45 2.55 2.61 2.76 2.76 2.80 2.98 3.00
0.18 0.15 0.15 0.20 0.25 0.42 0.87 1.16 1.07 1.10 1.04 0.96 0.83 0.71 0.67 0.65 0.63 0.61 0.60 0.60 0.72 0.65 0.73 0.91 1.05 1.20 1.50 1.84 2.16 2.29 2.21 2.20 2.26 2.09 2.03 2.13 2.13 2.12 2.23 2.26 2.23 2.20 2.33 2.53 2.74 2.68 2.85 2.97 3.01
0.18 0.18 0.18 0.24 0.24 0.28 0.48 0.80 0.66 0.74 0.85 0.87 0.70 0.63 0.61 0.53 0.51 0.48 0.47 0.54 0.52 0.52 0.61 0.93 1.27 1.61 1.79 2.10 2.46 2.63 2.43 2.21 2.07 1.89 1.86 1.97 2.15 2.19 2.20 2.21 2.19 2.09 2.20 2.46 2.61 2.71 2.96 3.10 2.98